User: anonymous   Login
Location: Unspecified
(0.0000°N, 0.0000°E)
Time: 17:20:42
(UTC+02:00)
Language:

NOAA 12 - Orbit

View from above orbital plane
View from above orbital plane
View from above satellite
View from above satellite

Ground track
Ground track

The orbit data is extracted from the following two-line orbital elements,

1 21263U 91032A   14296.24012780  .00000146  00000-0  80104-4 0  4729
2 21263 098.6539 321.5475 0013229 220.6621 272.5606 14.25691157218807
Epoch (UTC): 23 October 2014 05:45:47
Eccentricity: 0.0013229
inclination: 98.6539°
perigee height: 796 km
apogee height: 815 km
right ascension of ascending node: 321.5475°
argument of perigee: 220.6621°
revolutions per day: 14.25691157
mean anomaly at epoch: 272.5606°
orbit number at epoch: 21880

The dashed part of the orbit path shows where the satellite is in the earth's shadow,  

DLR